Satellite-Ground Cal/Val Site Overpasses Predictions

Prediction of Satellite NPP Overpassing Cal/Val Site: Antarctic Dome C

Ground Cal/Val Site Location: Latitude: -75.10, Longitude: 123.35; Satellite-Ground Site NADIR distance within 100 km.

Table of predicted overpasses for the next 14.0 days since TLE Epoch: 8/25/2015
Interval Starting Time Ending Time Minimum Distance Time Minimum Distance (km)
1 08/26/2015 14:46:01 08/26/2015 14:46:26 08/26/2015 14:46:13 53.99
2 08/27/2015 07:47:42 08/27/2015 07:48:01 08/27/2015 07:47:52 73.93
3 08/28/2015 07:28:48 08/28/2015 07:29:15 08/28/2015 07:29:02 34.09
4 08/30/2015 15:11:11 08/30/2015 15:11:21 08/30/2015 15:11:16 92.78
5 08/31/2015 14:52:10 08/31/2015 14:52:39 08/31/2015 14:52:24 18.63
6 09/02/2015 07:34:57 09/02/2015 07:35:26 09/02/2015 07:35:12 2.78
7 09/05/2015 14:58:21 09/05/2015 14:58:50 09/05/2015 14:58:35 17.82
8 09/06/2015 14:39:38 09/06/2015 14:39:51 09/06/2015 14:39:44 89.29
9 09/07/2015 07:41:09 09/07/2015 07:41:36 09/07/2015 07:41:23 38.36


NCC Satellite Cal/Val Overpasses Prediction Service
